Погода в Нердве

Россия / Пермский край     58°41′48″N   55°02′39″E
темп.,
°C
ветер,
м/с
пор.,
м/с
влажн.,
%
обл.,
%
осадки,
мм/ч
давл.,
гПа
погр.,
м
4 июля, пн
пн423:00+13ссв4977100 0.0 1012658
02:00+12ссв398080 0.0 1012519
05:00+11св3886100 0.0 1013390
08:00+12св477366 0.0 1014623
11:00+15ссв57476 0.0 10141576
14:00+17св573945 0.0 10142183
17:00+17св674223 0.0 10152027
20:00+15всв365520 0.0 1015772
5 июля, вт
вт523:00+11зюз1166100 0.0 101511
02:00+9зсз237458 0.0 101659
05:00+8ссз2786100 0.0 1016130
08:00+13ссз366686 0.0 1016262
11:00+18ссз354897 0.0 10151015
14:00+22с46375 0.0 10141878
17:00+23с353693 0.0 10131987
20:00+21сз11615 0.0 101313
6 июля, ср
ср623:00+15зсз22745 0.0 101313
02:00+13сз368055 0.0 101394
05:00+12сз3878100 0.0 1013144
08:00+17ссз3764100 0.0 1013238
11:00+23с234779 0.0 1013712
14:00+26с243992 0.0 10131685
17:00+26сз3440100 0.0 10122177
20:00+23зсз246444 0.0 1012105
7 июля, чт
чт723:00+17сз22715 0.0 101327
02:00+15ссз11745 0.0 101311
05:00+14зюз11765 0.0 101410
08:00+20з126210 0.0 1015170
11:00+25ююз12465 0.0 1015719
14:00+28юз22385 0.0 10142035
17:00+28юз234099 0.0 10142234
20:00+22юз236832 0.0 101465
8 июля, пт
пт823:00+19зюз23775 0.0 101544
02:00+17ююз23920 0.0 101551
05:00+16ююз279850 0.0 1015139
08:00+21юз4780100 0.0 1015340
11:00+23зюз3684100 0.9 1014463
14:00+26зюз466092 1.9 10141094
17:00+22з3690100 4.3 1014503
20:00+21сз368548 1.5 1014305